Regional Weather Roundup
Issued by NWS

Home | Current Version | Previous Version | Graphics & Text | Print | Product List | Glossary On
Versions: 1 2 3 4 5 6 7 8 9 10 11 12 13 14 15 16 17 18 19 20 21 22 23 24 25 26 27 28 29 30 31 32 33 34 35 36 37 38 39 40 41 42 43 44 45 46 47 48 49 50
000
ASUS43 KLSX 170707
RWRMO

WEATHER SUMMARY FOR MISSOURI
NATIONAL WEATHER SERVICE SPRINGFIELD MO
200 AM CDT TUE OCT 17 2017

NOTE: "FAIR" INDICATES FEW OR NO CLOUDS BELOW 12,000 FEET WITH NO
       SIGNIFICANT WEATHER AND/OR OBSTRUCTIONS TO VISIBILITY.
       CURRENT SKY AND/OR WEATHER CONDITIONS ARE NOT AVAILABLE FOR
       CHILLICOTHE AND FARMINGTON.

MOZ001>031-035>038-043-044-053-054-170800-
...NORTHERN AND WESTERN MISSOURI...

CITY           SKY/WX    TMP DP  RH WIND       PRES   REMARKS
KANSAS CTY INT PTCLDY    52  41  66 S9        30.22S
KANSAS C DTWN  PTCLDY    54  42  64 S6        30.22F
LEE`S SUMMIT   PTCLDY    53  42  66 S12       30.23F
ST JOSEPH      PTCLDY    51  43  74 S8        30.20S
CHILLICOTHE      N/A     49  43  80 S3        30.23F
KIRKSVILLE     CLOUDY    50  42  74 SW6       30.23S

$$
MOZ066>068-077>081-088>096-101>105-170800-
...SOUTHWEST MISSOURI...

CITY           SKY/WX    TMP DP  RH WIND       PRES   REMARKS
SPRINGFIELD    CLEAR     45  41  86 SE9       30.27F
JOPLIN         CLEAR     44  42  93 SE5       30.28S
BRANSON        CLEAR     50  36  57 CALM      30.31S

$$
MOZ032>034-039>042-045>050-055>058-069>072-170800-
...CENTRAL MISSOURI...

CITY           SKY/WX    TMP DP  RH WIND       PRES   REMARKS
COLUMBIA       CLEAR     47  40  76 S7        30.27S
JEFFERSON CITY CLEAR     44  40  85 E5        30.28S
ROLLA          CLEAR     43  37  79 S8        30.29F
SEDALIA        CLEAR     49  44  83 S7        30.27S
WHITEMAN AFB   PTCLDY    46  41  83 SW6       30.22R
WARRENSBURG    PTCLDY    48  41  76 S6        30.25S
OSAGE BEACH    CLEAR     42  40  92 CALM      30.29F

$$
MOZ051-052-059>065-170800-
...EAST CENTRAL MISSOURI...

CITY           SKY/WX    TMP DP  RH WIND       PRES   REMARKS
ST LOUIS INTL  CLEAR     52  38  58 S8        30.29S
SPIRIT OF STL  CLEAR     42  41  96 CALM      30.28F
ST CHARLES     CLEAR     42  41  96 CALM      30.28S

$$
MOZ072>076-082>087-097>100-106>115-170800-
...SOUTH CENTRAL AND SOUTHEAST MISSOURI...

CITY           SKY/WX    TMP DP  RH WIND       PRES   REMARKS
CAPE GIRARDEAU CLEAR     37  35  92 CALM      30.32S FOG
FARMINGTON     CLEAR     39  38  96 CALM      30.32S
POPLAR BLUFF   CLEAR     40  39  97 CALM      30.32S
WEST PLAINS    CLEAR     39  36  89 CALM      30.32S

$$



USA.gov is the U.S. government's official web portal to all federal, state and local government web resources and services.